Location: Isola Pescaroli
(45.0500°N, 10.1667°E)
Time: 00:50:01
(UTC+00:00)

SL-4 R/B - Pass Details

Date: 22 June 2021
Orbit: 428 x 662 km, 51.6° (Epoch: 29 July)

Event Time Altitude Azimuth Distance (km) Brightness Sun altitude
Rises 01:06:59 0° 296° (WNW) 2,589 5.5 -17.4°
Reaches altitude 10° 01:09:22 10° 306° (NW) 1,664 4.6 -17.2°
Maximum altitude 01:12:49 35° 13° (NNE) 768 3.4 -17.0°
Drops below altitude 10° 01:16:05 10° 81° (E) 1,569 4.8 -16.7°
Sets 01:18:16 0° 91° (E) 2,416 5.7 -16.5°
